This is the latest recevied weather packets stored in our database for station/object W0CHP-13. If no packets are shown the sender has not sent any weather packets the latest 10 day(s).
| Time | Temp. | Humidity | Pressure | Rain* | Wind** | Luminosity | Snow |
|---|---|---|---|---|---|---|---|
| 1777569436 | 16.67° C | 30% | 1014.4 hPa | 0 mm | - | 791 W/m² | - |
| 1777568839 | 17.22° C | 32% | 1014.5 hPa | 0 mm | - | 799 W/m² | - |
| 1777568237 | 16.11° C | 33% | 1014.8 hPa | 0 mm | - | 826 W/m² | - |
| 1777567635 | 16.11° C | 30% | 1014.8 hPa | 0 mm | - | 788 W/m² | - |
| 1777567037 | 14.44° C | 34% | 1014.8 hPa | 0 mm | - | 338 W/m² | - |
| 1777566435 | 16.11° C | 33% | 1014.6 hPa | 0 mm | - | 820 W/m² | - |
| 1777565838 | 15° C | 34% | 1014.8 hPa | 0 mm | - | 721 W/m² | - |
| 1777565239 | 17.22° C | 34% | 1014.8 hPa | 0 mm | - | 460 W/m² | - |
| 1777564637 | 16.11° C | 34% | 1014.5 hPa | 0 mm | - | 727 W/m² | - |
| 1777564035 | 15.56° C | 41% | 1014.8 hPa | 0 mm | - | 642 W/m² | - |
| 1777563438 | 15° C | 40% | 1014.8 hPa | 0 mm | - | 609 W/m² | - |
| 1777562836 | 14.44° C | 41% | 1014.8 hPa | 0 mm | - | 591 W/m² | - |
| 1777562238 | 13.33° C | 43% | 1014.9 hPa | 0 mm | - | 594 W/m² | - |
| 1777561636 | 12.22° C | 45% | 1015.1 hPa | 0 mm | - | 374 W/m² | - |
| 1777561038 | 11.11° C | 52% | 1015.1 hPa | 0 mm | - | 527 W/m² | - |
| 1777560436 | 9.44° C | 49% | 1015.1 hPa | 0 mm | - | 229 W/m² | - |
| 1777559835 | 10° C | 53% | 1015.1 hPa | 0 mm | - | 244 W/m² | - |
| 1777559237 | 10.56° C | 53% | 1015.1 hPa | 0 mm | - | 229 W/m² | - |
| 1777558635 | 10.56° C | 51% | 1015.1 hPa | 0 mm | - | 252 W/m² | - |
| 1777558037 | 10.56° C | 52% | 1015.1 hPa | 0 mm | - | 182 W/m² | - |
| 1777557436 | 11.67° C | 52% | 1014.9 hPa | 0 mm | - | 316 W/m² | - |
| 1777556838 | 10° C | 55% | 1015 hPa | 0 mm | - | 330 W/m² | - |
| 1777556236 | 10.56° C | 56% | 1014.9 hPa | 0 mm | - | 126 W/m² | - |
| 1777555638 | 10° C | 62% | 1015.1 hPa | 0 mm | - | 241 W/m² | - |
| 1777555037 | 7.78° C | 65% | 1014.8 hPa | 0 mm | - | 97 W/m² | - |
* Rain latest hour (hover to see other rain measurements)
** Current wind speed in m/s (hover to see current wind gust speed)